Location: Asheville, NC
(35.6000°N, 82.5500°W)
Time: 00:42:14
(UTC-04:00)

ITAMSAT 1 - Pass Details

Date: 10 March 2018
Orbit: 784 x 796 km, 98.9° (Epoch: 18 June)

Event Time Altitude Azimuth Distance (km) Brightness Sun altitude
Rises 05:01:31 0° 5° (N) 3,303 11.1 -22.4°
Reaches altitude 10° 05:03:55 10° 360° (N) 2,368 10.3 -21.9°
Maximum altitude 05:08:53 46° 289° (WNW) 1,064 7.9 -20.9°
Enters shadow 05:09:33 43° 266° (W) 1,101 7.9 -20.8°
